Time,TemperatureF,DewpointF,PressureIn,WindDirection,WindDirectionDegrees,WindSpeedMPH,WindSpeedGustMPH,Humidity,HourlyPrecipIn,Conditions,Clouds,dailyrainin,SoftwareType,DateUTC
2013-01-16 00:09:00,22.4,16.8,30.19,WSW,242,0.0,0.0,79,0.00,FEW,OVC,0.00,WeatherDisplay:10.37,2013-01-16 05:09:00,
2013-01-16 00:14:00,22.1,16.6,30.19,WSW,242,0.0,0.0,79,0.00,FEW,OVC,0.00,WeatherDisplay:10.37,2013-01-16 05:14:00,
2013-01-16 00:19:00,22.0,16.8,30.19,WSW,242,0.0,0.0,80,0.00,FEW,OVC,0.00,WeatherDisplay:10.37,2013-01-16 05:19:00,
2013-01-16 00:24:00,21.8,16.5,30.19,WSW,242,0.0,0.0,80,0.00,FEW,OVC,0.00,WeatherDisplay:10.37,2013-01-16 05:24:00,
2013-01-16 00:29:00,21.6,16.4,30.19,WSW,242,0.0,0.0,80,0.00,FEW,OVC,0.00,WeatherDisplay:10.37,2013-01-16 05:29:00,
2013-01-16 00:34:00,21.4,16.5,30.18,WSW,244,0.0,0.0,81,0.00,FEW,OVC,0.00,WeatherDisplay:10.37,2013-01-16 05:34:00,
2013-01-16 00:39:00,21.2,16.3,30.18,WSW,247,0.0,0.0,81,0.00,FEW,OVC,0.00,WeatherDisplay:10.37,2013-01-16 05:39:00,
2013-01-16 00:44:00,21.1,16.2,30.18,WSW,247,0.0,0.0,81,0.00,FEW,OVC,0.00,WeatherDisplay:10.37,2013-01-16 05:44:00,
2013-01-16 00:49:00,20.9,16.0,30.18,WSW,247,0.0,0.0,81,0.00,FEW,OVC,0.00,WeatherDisplay:10.37,2013-01-16 05:49:00,
2013-01-16 00:54:00,20.8,16.2,30.18,WSW,247,0.0,0.0,82,0.00,FEW,OVC,0.00,WeatherDisplay:10.37,2013-01-16 05:54:00,
2013-01-16 01:04:00,20.5,16.2,30.18,WSW,247,0.0,0.0,83,0.00,FEW,OVC,0.00,WeatherDisplay:10.37,2013-01-16 06:04:00,
2013-01-16 01:09:00,20.3,15.7,30.18,WSW,247,0.0,0.0,82,0.00,FEW,OVC,0.00,WeatherDisplay:10.37,2013-01-16 06:09:00,
2013-01-16 01:14:00,20.2,15.9,30.18,WSW,247,0.0,0.0,83,0.00,BKN,OVC,0.00,WeatherDisplay:10.37,2013-01-16 06:14:00,
2013-01-16 01:19:00,20.0,15.7,30.18,WSW,247,0.0,0.0,83,0.00,BKN,OVC,0.00,WeatherDisplay:10.37,2013-01-16 06:19:00,
2013-01-16 01:24:00,19.8,15.5,30.18,WSW,247,0.0,0.0,83,0.00,BKN,OVC,0.00,WeatherDisplay:10.37,2013-01-16 06:24:00,
2013-01-16 01:29:00,19.7,15.4,30.17,WSW,247,0.0,0.0,83,0.00,BKN,OVC,0.00,WeatherDisplay:10.37,2013-01-16 06:29:00,
2013-01-16 01:34:00,19.6,15.5,30.18,WSW,247,0.0,0.0,84,0.00,BKN,OVC,0.00,WeatherDisplay:10.37,2013-01-16 06:34:00,
2013-01-16 01:39:00,19.4,15.4,30.18,WSW,247,0.0,0.0,84,0.00,BKN,OVC,0.00,WeatherDisplay:10.37,2013-01-16 06:39:00,
2013-01-16 01:44:00,19.3,15.2,30.18,WSW,247,0.0,0.0,84,0.00,BKN,OVC,0.00,WeatherDisplay:10.37,2013-01-16 06:44:00,
2013-01-16 01:49:00,19.1,15.1,30.18,WSW,247,0.0,0.0,84,0.00,BKN,OVC,0.00,WeatherDisplay:10.37,2013-01-16 06:49:00,
2013-01-16 01:54:00,19.0,15.2,30.18,WSW,247,0.0,0.0,85,0.00,BKN,OVC,0.00,WeatherDisplay:10.37,2013-01-16 06:54:00,
2013-01-16 01:59:00,18.8,14.8,30.18,WSW,247,0.0,0.0,84,0.00,BKN,OVC,0.00,WeatherDisplay:10.37,2013-01-16 06:59:00,
2013-01-16 02:04:00,18.7,14.7,30.18,WSW,247,0.0,0.0,84,0.00,BKN,OVC,0.00,WeatherDisplay:10.37,2013-01-16 07:04:00,
2013-01-16 02:14:00,18.4,14.6,30.18,WSW,247,0.0,0.0,85,0.00,OVC,OVC,0.00,WeatherDisplay:10.37,2013-01-16 07:14:00,
2013-01-16 02:19:00,18.3,14.5,30.17,WSW,247,0.0,0.0,85,0.00,OVC,OVC,0.00,WeatherDisplay:10.37,2013-01-16 07:19:00,
2013-01-16 02:24:00,18.1,14.4,30.17,WSW,247,0.0,0.0,85,0.00,OVC,OVC,0.00,WeatherDisplay:10.37,2013-01-16 07:24:00,
2013-01-16 02:29:00,18.1,14.6,30.17,WSW,247,0.0,0.0,86,0.00,OVC,OVC,0.00,WeatherDisplay:10.37,2013-01-16 07:29:00,
2013-01-16 02:34:00,18.0,14.5,30.17,WSW,247,0.0,0.0,86,0.00,OVC,OVC,0.00,WeatherDisplay:10.37,2013-01-16 07:34:00,
2013-01-16 02:39:00,17.9,14.4,30.16,WSW,247,0.0,0.0,86,0.00,OVC,OVC,0.00,WeatherDisplay:10.37,2013-01-16 07:39:00,
2013-01-16 02:44:00,17.8,14.3,30.16,WSW,247,0.0,0.0,86,0.00,OVC,OVC,0.00,WeatherDisplay:10.37,2013-01-16 07:44:00,
2013-01-16 02:49:00,17.7,14.3,30.16,WSW,247,0.0,0.0,86,0.00,OVC,OVC,0.00,WeatherDisplay:10.37,2013-01-16 07:49:00,
2013-01-16 02:54:00,17.6,14.4,30.15,WSW,248,0.0,0.0,87,0.00,OVC,OVC,0.00,WeatherDisplay:10.37,2013-01-16 07:54:00,
2013-01-16 02:59:00,17.6,14.4,30.15,WSW,248,0.0,0.0,87,0.00,OVC,OVC,0.00,WeatherDisplay:10.37,2013-01-16 07:59:00,
2013-01-16 03:04:00,17.5,14.3,30.15,WSW,249,0.0,0.0,87,0.00,OVC,OVC,0.00,WeatherDisplay:10.37,2013-01-16 08:04:00,
2013-01-16 03:09:00,17.4,14.2,30.15,WSW,249,0.0,0.0,87,0.00,OVC,OVC,0.00,WeatherDisplay:10.37,2013-01-16 08:09:00,
2013-01-16 03:14:00,17.4,14.2,30.14,WSW,249,0.0,0.0,87,0.00,OVC,OVC,0.00,WeatherDisplay:10.37,2013-01-16 08:14:00,
2013-01-16 03:19:00,17.3,14.4,30.15,WSW,249,0.0,0.0,88,0.00,OVC,OVC,0.00,WeatherDisplay:10.37,2013-01-16 08:19:00,
2013-01-16 03:24:00,17.3,14.3,30.14,WSW,249,0.0,0.0,88,0.00,OVC,OVC,0.00,WeatherDisplay:10.37,2013-01-16 08:24:00,
2013-01-16 03:29:00,17.2,14.3,30.14,WSW,249,0.0,0.0,88,0.00,OVC,OVC,0.00,WeatherDisplay:10.37,2013-01-16 08:29:00,
2013-01-16 03:34:00,17.2,14.3,30.14,WSW,249,0.0,0.0,88,0.00,OVC,OVC,0.00,WeatherDisplay:10.37,2013-01-16 08:34:00,
2013-01-16 03:39:00,17.1,14.2,30.14,WSW,249,0.0,0.0,88,0.00,OVC,OVC,0.00,WeatherDisplay:10.37,2013-01-16 08:39:00,
2013-01-16 03:44:00,17.1,14.4,30.13,WSW,249,0.0,0.0,89,0.00,OVC,OVC,0.00,WeatherDisplay:10.37,2013-01-16 08:44:00,
2013-01-16 03:49:00,17.1,14.4,30.13,WSW,249,0.0,0.0,89,0.00,OVC,OVC,0.00,WeatherDisplay:10.37,2013-01-16 08:49:00,
2013-01-16 03:54:00,17.1,14.4,30.13,WSW,249,0.0,0.0,89,0.00,OVC,OVC,0.00,WeatherDisplay:10.37,2013-01-16 08:54:00,
2013-01-16 03:59:00,17.0,14.3,30.12,WSW,249,0.0,0.0,89,0.00,OVC,OVC,0.00,WeatherDisplay:10.37,2013-01-16 08:59:00,
2013-01-16 04:04:00,17.0,14.3,30.12,WSW,249,0.0,0.0,89,0.00,OVC,OVC,0.00,WeatherDisplay:10.37,2013-01-16 09:04:00,
2013-01-16 04:09:00,17.0,14.0,30.11,WSW,249,0.0,0.0,88,0.00,OVC,OVC,0.00,WeatherDisplay:10.37,2013-01-16 09:09:00,
2013-01-16 04:14:00,16.9,14.2,30.11,WSW,249,0.0,0.0,89,0.00,OVC,OVC,0.00,WeatherDisplay:10.37,2013-01-16 09:14:00,
2013-01-16 04:19:00,16.9,14.0,30.11,WSW,249,0.0,0.0,88,0.00,OVC,OVC,0.00,WeatherDisplay:10.37,2013-01-16 09:19:00,
2013-01-16 04:24:00,16.8,13.9,30.10,WSW,249,0.0,0.0,88,0.00,OVC,OVC,0.00,WeatherDisplay:10.37,2013-01-16 09:24:00,
2013-01-16 04:29:00,16.8,14.1,30.10,WSW,249,0.0,0.0,89,0.00,OVC,OVC,0.00,WeatherDisplay:10.37,2013-01-16 09:29:00,
2013-01-16 04:34:00,16.8,14.1,30.10,WSW,249,0.0,0.0,89,0.00,OVC,OVC,0.00,WeatherDisplay:10.37,2013-01-16 09:34:00,
2013-01-16 04:39:00,16.7,14.1,30.10,WSW,249,0.0,0.0,89,0.00,OVC,OVC,0.00,WeatherDisplay:10.37,2013-01-16 09:39:00,
2013-01-16 04:44:00,16.7,14.0,30.09,WSW,249,0.0,0.0,89,0.00,OVC,OVC,0.00,WeatherDisplay:10.37,2013-01-16 09:44:00,
2013-01-16 04:49:00,16.7,14.0,30.09,WSW,249,0.0,0.0,89,0.00,OVC,OVC,0.00,WeatherDisplay:10.37,2013-01-16 09:49:00,
2013-01-16 04:54:00,16.7,14.0,30.09,WSW,249,0.0,0.0,89,0.00,OVC,OVC,0.00,WeatherDisplay:10.37,2013-01-16 09:54:00,
2013-01-16 04:59:00,16.7,14.0,30.09,WSW,249,0.0,0.0,89,0.00,OVC,OVC,0.00,WeatherDisplay:10.37,2013-01-16 09:59:00,
2013-01-16 05:04:00,16.8,14.3,30.09,WSW,249,0.0,0.0,90,0.00,OVC,OVC,0.00,WeatherDisplay:10.37,2013-01-16 10:04:00,
2013-01-16 05:09:00,16.8,14.4,30.08,WSW,249,0.0,0.0,90,0.00,OVC,OVC,0.00,WeatherDisplay:10.37,2013-01-16 10:09:00,
2013-01-16 05:14:00,16.9,14.5,30.08,WSW,249,0.0,0.0,90,0.00,OVC,OVC,0.00,WeatherDisplay:10.37,2013-01-16 10:14:00,
2013-01-16 05:19:00,17.0,14.6,30.08,WSW,249,0.0,0.0,90,0.00,OVC,OVC,0.00,WeatherDisplay:10.37,2013-01-16 10:19:00,
2013-01-16 05:24:00,17.0,14.6,30.08,WSW,249,0.0,0.0,90,0.00,OVC,OVC,0.00,WeatherDisplay:10.37,2013-01-16 10:24:00,
2013-01-16 05:29:00,17.0,14.6,30.08,WSW,249,0.0,0.0,90,0.00,OVC,OVC,0.00,WeatherDisplay:10.37,2013-01-16 10:29:00,
2013-01-16 05:34:00,17.1,14.7,30.08,WSW,249,0.0,0.0,90,0.00,OVC,OVC,0.00,WeatherDisplay:10.37,2013-01-16 10:34:00,
2013-01-16 05:39:00,17.1,14.7,30.08,WSW,249,0.0,0.0,90,0.00,OVC,OVC,0.00,WeatherDisplay:10.37,2013-01-16 10:39:00,
2013-01-16 05:44:00,17.2,14.8,30.08,WSW,249,0.0,0.0,90,0.00,OVC,OVC,0.00,WeatherDisplay:10.37,2013-01-16 10:44:00,
2013-01-16 05:49:00,17.2,14.8,30.08,WSW,249,0.0,0.0,90,0.00,OVC,OVC,0.00,WeatherDisplay:10.37,2013-01-16 10:49:00,
2013-01-16 05:54:00,17.2,14.8,30.08,WSW,249,0.0,0.0,90,0.00,OVC,OVC,0.00,WeatherDisplay:10.37,2013-01-16 10:54:00,
2013-01-16 05:59:00,17.2,14.8,30.08,WSW,249,0.0,0.0,90,0.00,OVC,OVC,0.00,WeatherDisplay:10.37,2013-01-16 10:59:00,
2013-01-16 06:04:00,17.2,14.8,30.08,WSW,249,0.0,0.0,90,0.00,OVC,OVC,0.00,WeatherDisplay:10.37,2013-01-16 11:04:00,
2013-01-16 06:09:00,17.3,14.9,30.08,WSW,249,0.0,0.0,90,0.00,OVC,OVC,0.00,WeatherDisplay:10.37,2013-01-16 11:09:00,
2013-01-16 06:14:00,17.3,14.9,30.08,WSW,249,0.0,0.0,90,0.00,OVC,OVC,0.00,WeatherDisplay:10.37,2013-01-16 11:14:00,
2013-01-16 06:19:00,17.3,14.9,30.08,WSW,249,0.0,0.0,90,0.00,OVC,OVC,0.00,WeatherDisplay:10.37,2013-01-16 11:19:00,
2013-01-16 06:24:00,17.3,14.6,30.08,WSW,249,0.0,0.0,89,0.00,OVC,OVC,0.00,WeatherDisplay:10.37,2013-01-16 11:24:00,
2013-01-16 06:29:00,17.3,14.6,30.08,WSW,249,0.0,0.0,89,0.00,OVC,OVC,0.00,WeatherDisplay:10.37,2013-01-16 11:29:00,
2013-01-16 06:34:00,17.3,14.6,30.08,WSW,249,0.0,0.0,89,0.00,OVC,OVC,0.00,WeatherDisplay:10.37,2013-01-16 11:34:00,
2013-01-16 06:39:00,17.3,14.9,30.07,WSW,249,0.0,0.0,90,0.00,OVC,OVC,0.00,WeatherDisplay:10.37,2013-01-16 11:39:00,
2013-01-16 06:44:00,17.3,14.9,30.07,WSW,249,0.0,0.0,90,0.00,OVC,OVC,0.00,WeatherDisplay:10.37,2013-01-16 11:44:00,
2013-01-16 06:49:00,17.3,14.9,30.07,WSW,249,0.0,0.0,90,0.00,OVC,OVC,0.00,WeatherDisplay:10.37,2013-01-16 11:49:00,
2013-01-16 06:54:00,17.4,15.0,30.07,WSW,249,0.0,0.0,90,0.00,OVC,OVC,0.00,WeatherDisplay:10.37,2013-01-16 11:54:00,
2013-01-16 07:04:00,17.4,15.0,30.07,WNW,298,0.0,1.0,90,0.00,OVC,OVC,0.00,WeatherDisplay:10.37,2013-01-16 12:04:00,
2013-01-16 07:09:00,17.4,15.0,30.07,NNW,347,0.0,3.0,90,0.00,OVC,OVC,0.00,WeatherDisplay:10.37,2013-01-16 12:09:00,
2013-01-16 07:14:00,17.4,15.0,30.07,NNW,339,1.0,3.0,90,0.00,OVC,OVC,0.00,WeatherDisplay:10.37,2013-01-16 12:14:00,
2013-01-16 07:19:00,17.5,15.0,30.07,NNW,345,0.0,1.0,90,0.00,OVC,OVC,0.00,WeatherDisplay:10.37,2013-01-16 12:19:00,
2013-01-16 07:24:00,17.5,15.1,30.07,North,350,0.0,1.0,90,0.00,OVC,OVC,0.00,WeatherDisplay:10.37,2013-01-16 12:24:00,
2013-01-16 07:29:00,17.6,15.1,30.07,NNW,348,0.0,2.0,90,0.00,OVC,OVC,0.00,WeatherDisplay:10.37,2013-01-16 12:29:00,
2013-01-16 07:34:00,17.6,15.2,30.07,NNW,335,0.0,0.0,90,0.00,OVC,OVC,0.00,WeatherDisplay:10.37,2013-01-16 12:34:00,
2013-01-16 07:39:00,17.6,15.2,30.07,NNW,334,0.0,0.0,90,0.00,OVC,OVC,0.00,WeatherDisplay:10.37,2013-01-16 12:39:00,
2013-01-16 07:44:00,17.7,15.3,30.06,NNW,334,0.0,0.0,90,0.00,OVC,OVC,0.00,WeatherDisplay:10.37,2013-01-16 12:44:00,
2013-01-16 07:49:00,17.7,15.3,30.06,NNW,334,0.0,0.0,90,0.00,OVC,OVC,0.00,WeatherDisplay:10.37,2013-01-16 12:49:00,
2013-01-16 07:54:00,17.8,15.3,30.06,NNW,334,0.0,0.0,90,0.00,OVC,OVC,0.00,WeatherDisplay:10.37,2013-01-16 12:54:00,
2013-01-16 07:59:00,17.8,15.4,30.06,NNW,334,0.0,0.0,90,0.00,OVC,OVC,0.00,WeatherDisplay:10.37,2013-01-16 12:59:00,
2013-01-16 08:04:00,17.8,15.4,30.06,NNW,334,0.0,0.0,90,0.00,OVC,OVC,0.00,WeatherDisplay:10.37,2013-01-16 13:04:00,
2013-01-16 08:09:00,17.8,15.4,30.05,NNW,334,0.0,0.0,90,0.00,OVC,OVC,0.00,WeatherDisplay:10.37,2013-01-16 13:09:00,
2013-01-16 08:14:00,17.9,15.5,30.05,NNW,334,0.0,0.0,90,0.00,OVC,OVC,0.00,WeatherDisplay:10.37,2013-01-16 13:14:00,
2013-01-16 08:19:00,17.9,15.5,30.05,NNW,334,0.0,0.0,90,0.00,OVC,OVC,0.00,WeatherDisplay:10.37,2013-01-16 13:19:00,
2013-01-16 08:24:00,17.9,15.5,30.04,NNW,334,0.0,0.0,90,0.00,OVC,OVC,0.00,WeatherDisplay:10.37,2013-01-16 13:24:00,
2013-01-16 08:29:00,17.9,15.5,30.05,NNW,334,1.0,3.0,90,0.00,OVC,OVC,0.00,WeatherDisplay:10.37,2013-01-16 13:29:00,
2013-01-16 08:34:00,18.0,15.6,30.05,NNW,335,0.0,2.0,90,0.00,OVC,OVC,0.00,WeatherDisplay:10.37,2013-01-16 13:34:00,
2013-01-16 08:39:00,18.0,15.6,30.05,NNW,344,0.0,0.0,90,0.00,OVC,OVC,0.00,WeatherDisplay:10.37,2013-01-16 13:39:00,
2013-01-16 08:44:00,18.4,15.9,30.04,NNW,344,0.0,0.0,90,0.00,OVC,OVC,0.00,WeatherDisplay:10.37,2013-01-16 13:44:00,
2013-01-16 08:49:00,19.0,16.3,30.04,NNW,341,0.0,2.0,89,0.00,OVC,OVC,0.00,WeatherDisplay:10.37,2013-01-16 13:49:00,
2013-01-16 08:54:00,19.2,16.3,30.03,NNW,331,0.0,2.0,88,0.00,OVC,OVC,0.00,WeatherDisplay:10.37,2013-01-16 13:54:00,
2013-01-16 08:59:00,19.8,16.8,30.02,NNW,330,0.0,0.0,88,0.00,OVC,OVC,0.00,WeatherDisplay:10.37,2013-01-16 13:59:00,
2013-01-16 09:04:00,20.3,17.0,30.02,NNW,331,0.0,0.0,87,0.00,OVC,OVC,0.00,WeatherDisplay:10.37,2013-01-16 14:04:00,
2013-01-16 09:09:00,20.8,17.3,30.02,NNW,331,0.0,0.0,86,0.00,OVC,OVC,0.00,WeatherDisplay:10.37,2013-01-16 14:09:00,
2013-01-16 09:14:00,21.4,17.6,30.01,NNW,331,0.0,0.0,85,0.00,BKN,OVC,0.00,WeatherDisplay:10.37,2013-01-16 14:14:00,
2013-01-16 09:19:00,21.8,17.7,30.01,NNW,331,0.0,0.0,84,0.00,BKN,OVC,0.00,WeatherDisplay:10.37,2013-01-16 14:19:00,
2013-01-16 09:24:00,22.0,17.9,30.01,NNW,330,0.0,0.0,84,0.00,BKN,OVC,0.00,WeatherDisplay:10.37,2013-01-16 14:24:00,
2013-01-16 09:29:00,22.3,17.9,30.01,NNW,330,0.0,0.0,83,0.00,BKN,OVC,0.00,WeatherDisplay:10.37,2013-01-16 14:29:00,
2013-01-16 09:34:00,22.7,18.0,30.01,NNW,330,0.0,1.0,82,0.00,BKN,OVC,0.00,WeatherDisplay:10.37,2013-01-16 14:34:00,
2013-01-16 09:39:00,23.0,18.3,30.01,NNW,329,0.0,2.0,82,0.00,BKN,OVC,0.00,WeatherDisplay:10.37,2013-01-16 14:39:00,
2013-01-16 09:44:00,23.4,18.4,30.01,NNW,329,0.0,0.0,81,0.00,BKN,OVC,0.00,WeatherDisplay:10.37,2013-01-16 14:44:00,
2013-01-16 09:49:00,23.7,18.7,30.01,NNW,329,0.0,0.0,81,0.00,BKN,OVC,0.00,WeatherDisplay:10.37,2013-01-16 14:49:00,
2013-01-16 09:54:00,23.8,18.6,30.00,NNW,329,0.0,0.0,80,0.00,BKN,OVC,0.00,WeatherDisplay:10.37,2013-01-16 14:54:00,
2013-01-16 09:59:00,24.0,18.7,30.00,NNW,329,0.0,0.0,80,0.00,BKN,OVC,0.00,WeatherDisplay:10.37,2013-01-16 14:59:00,
2013-01-16 10:04:00,24.5,19.2,29.99,WNW,287,0.0,0.0,80,0.00,BKN,OVC,0.00,WeatherDisplay:10.37,2013-01-16 15:04:00,
2013-01-16 10:09:00,24.8,19.5,29.99,WSW,251,0.0,1.0,80,0.00,BKN,OVC,0.00,WeatherDisplay:10.37,2013-01-16 15:09:00,
2013-01-16 10:14:00,25.1,19.5,29.99,SW,217,0.0,2.0,79,0.00,OVC,OVC,0.00,WeatherDisplay:10.37,2013-01-16 15:14:00,
2013-01-16 10:19:00,25.3,19.7,29.98,South,184,0.0,1.0,79,0.00,OVC,OVC,0.00,WeatherDisplay:10.37,2013-01-16 15:19:00,
2013-01-16 10:24:00,25.5,19.9,29.98,South,170,0.0,3.0,79,0.00,OVC,OVC,0.00,WeatherDisplay:10.37,2013-01-16 15:24:00,
2013-01-16 10:29:00,25.7,20.1,29.98,SSE,159,0.0,2.0,79,0.00,OVC,OVC,0.00,WeatherDisplay:10.37,2013-01-16 15:29:00,
2013-01-16 10:34:00,25.8,19.9,29.98,SSE,150,0.0,0.0,78,0.00,OVC,OVC,0.00,WeatherDisplay:10.37,2013-01-16 15:34:00,
2013-01-16 10:39:00,26.0,20.1,29.98,SSE,162,0.0,2.0,78,0.00,OVC,OVC,0.00,WeatherDisplay:10.37,2013-01-16 15:39:00,
2013-01-16 10:44:00,26.1,20.5,29.98,South,170,0.0,1.0,79,0.00,OVC,OVC,0.00,WeatherDisplay:10.37,2013-01-16 15:44:00,
2013-01-16 10:49:00,26.3,20.4,29.97,SSE,157,0.0,2.0,78,0.00,OVC,OVC,0.00,WeatherDisplay:10.37,2013-01-16 15:49:00,
2013-01-16 10:54:00,26.5,20.3,29.97,SSE,159,0.0,1.0,77,0.00,OVC,OVC,0.00,WeatherDisplay:10.37,2013-01-16 15:54:00,
2013-01-16 10:59:00,26.8,20.6,29.96,SE,145,0.0,3.0,77,0.00,OVC,OVC,0.00,WeatherDisplay:10.37,2013-01-16 15:59:00,
2013-01-16 11:04:00,26.9,20.7,29.96,SE,124,0.0,1.0,77,0.00,OVC,OVC,0.00,WeatherDisplay:10.37,2013-01-16 16:04:00,
2013-01-16 11:09:00,27.2,20.3,29.95,SE,141,0.0,1.0,75,0.00,OVC,OVC,0.00,WeatherDisplay:10.37,2013-01-16 16:09:00,
2013-01-16 11:14:00,27.6,20.7,29.95,SSW,194,0.0,1.0,75,0.00,OVC,OVC,0.00,WeatherDisplay:10.37,2013-01-16 16:14:00,
2013-01-16 11:19:00,27.5,21.0,29.94,South,175,0.0,1.0,76,0.00,OVC,OVC,0.00,WeatherDisplay:10.37,2013-01-16 16:19:00,
2013-01-16 11:24:00,27.7,20.5,29.94,SSE,152,1.0,2.0,74,0.00,OVC,OVC,0.00,WeatherDisplay:10.37,2013-01-16 16:24:00,
2013-01-16 11:29:00,27.9,21.0,29.93,SSW,202,1.0,3.0,75,0.00,OVC,OVC,0.00,WeatherDisplay:10.37,2013-01-16 16:29:00,
2013-01-16 11:34:00,28.1,21.2,29.93,SW,216,0.0,2.0,75,0.00,OVC,OVC,0.00,WeatherDisplay:10.37,2013-01-16 16:34:00,
2013-01-16 11:39:00,28.0,20.8,29.93,South,182,0.0,1.0,74,0.00,OVC,OVC,0.00,WeatherDisplay:10.37,2013-01-16 16:39:00,
2013-01-16 11:44:00,28.4,21.8,29.92,SSE,158,0.0,2.0,76,0.00,OVC,OVC,0.00,WeatherDisplay:10.37,2013-01-16 16:44:00,
2013-01-16 11:49:00,28.8,20.9,29.92,South,174,1.0,3.0,72,0.00,OVC,OVC,0.00,WeatherDisplay:10.37,2013-01-16 16:49:00,
2013-01-16 11:54:00,28.7,21.1,29.91,South,177,0.0,3.0,73,0.00,OVC,OVC,0.00,WeatherDisplay:10.37,2013-01-16 16:54:00,
2013-01-16 11:59:00,29.1,21.8,29.90,South,189,1.0,2.0,74,0.00,OVC,OVC,0.00,WeatherDisplay:10.37,2013-01-16 16:59:00,
2013-01-16 12:04:00,29.2,21.6,29.89,SSE,165,2.0,3.0,73,0.00,OVC,OVC,0.00,WeatherDisplay:10.37,2013-01-16 17:04:00,
2013-01-16 12:09:00,29.3,22.0,29.89,South,175,1.0,2.0,74,0.00,OVC,OVC,0.00,WeatherDisplay:10.37,2013-01-16 17:09:00,
2013-01-16 12:14:00,29.2,21.9,29.88,SSE,162,1.0,4.0,74,0.00,OVC,OVC,0.00,WeatherDisplay:10.37,2013-01-16 17:14:00,
2013-01-16 12:19:00,29.3,22.3,29.88,SSE,148,0.0,1.0,75,0.00,OVC,OVC,0.00,WeatherDisplay:10.37,2013-01-16 17:19:00,
2013-01-16 12:24:00,29.5,22.2,29.88,SSE,166,1.0,4.0,74,0.00,OVC,OVC,0.00,WeatherDisplay:10.37,2013-01-16 17:24:00,
2013-01-16 12:29:00,29.3,22.1,29.87,South,172,0.0,4.0,74,0.00,OVC,OVC,0.00,WeatherDisplay:10.37,2013-01-16 17:29:00,
2013-01-16 12:34:00,29.8,22.6,29.86,South,169,0.0,3.0,74,0.00,OVC,OVC,0.00,WeatherDisplay:10.37,2013-01-16 17:34:00,
2013-01-16 12:39:00,29.9,22.6,29.86,South,177,1.0,5.0,74,0.00,OVC,OVC,0.00,WeatherDisplay:10.37,2013-01-16 17:39:00,
2013-01-16 12:44:00,29.6,22.7,29.86,South,187,0.0,1.0,75,0.00,OVC,OVC,0.00,WeatherDisplay:10.37,2013-01-16 17:44:00,
2013-01-16 12:49:00,29.9,22.6,29.85,South,189,0.0,2.0,74,0.00,OVC,OVC,0.00,WeatherDisplay:10.37,2013-01-16 17:49:00,
2013-01-16 12:54:00,29.9,22.3,29.84,SSE,148,1.0,2.0,73,0.00,OVC,OVC,0.00,WeatherDisplay:10.37,2013-01-16 17:54:00,
2013-01-16 12:59:00,29.5,22.2,29.84,SE,146,0.0,4.0,74,0.00,OVC,OVC,0.00,WeatherDisplay:10.37,2013-01-16 17:59:00,
2013-01-16 13:04:00,29.6,22.3,29.84,SSE,161,0.0,1.0,74,0.00,OVC,OVC,0.00,WeatherDisplay:10.37,2013-01-16 18:04:00,
2013-01-16 13:09:00,29.7,22.1,29.84,SSE,165,0.0,6.0,73,0.00,OVC,OVC,0.00,WeatherDisplay:10.37,2013-01-16 18:09:00,
2013-01-16 13:14:00,29.7,22.1,29.83,South,169,0.0,3.0,73,0.00,SCT,OVC,0.00,WeatherDisplay:10.37,2013-01-16 18:14:00,
2013-01-16 13:19:00,29.5,21.9,29.83,SSE,164,1.0,3.0,73,0.00,SCT,OVC,0.00,WeatherDisplay:10.37,2013-01-16 18:19:00,
2013-01-16 13:24:00,29.4,21.8,29.83,SSE,158,0.0,2.0,73,0.00,SCT,OVC,0.00,WeatherDisplay:10.37,2013-01-16 18:24:00,
2013-01-16 13:29:00,29.6,22.0,29.82,South,172,0.0,4.0,73,0.00,SCT,OVC,0.00,WeatherDisplay:10.37,2013-01-16 18:29:00,
2013-01-16 13:34:00,29.8,22.2,29.82,South,170,0.0,2.0,73,0.00,SCT,OVC,0.00,WeatherDisplay:10.37,2013-01-16 18:34:00,
2013-01-16 13:39:00,29.7,22.1,29.82,SSE,152,1.0,2.0,73,0.00,SCT,OVC,0.00,WeatherDisplay:10.37,2013-01-16 18:39:00,
2013-01-16 13:44:00,29.8,22.2,29.82,SE,136,0.0,3.0,73,0.00,SCT,OVC,0.00,WeatherDisplay:10.37,2013-01-16 18:44:00,
2013-01-16 13:49:00,30.0,22.1,29.81,SSE,155,0.0,3.0,72,0.00,SCT,OVC,0.00,WeatherDisplay:10.37,2013-01-16 18:49:00,
2013-01-16 13:54:00,30.1,22.5,29.81,SSE,158,1.0,3.0,73,0.00,SCT,OVC,0.00,WeatherDisplay:10.37,2013-01-16 18:54:00,
2013-01-16 13:59:00,30.1,22.5,29.80,South,171,0.0,2.0,73,0.00,SCT,OVC,0.00,WeatherDisplay:10.37,2013-01-16 18:59:00,
2013-01-16 14:04:00,30.1,22.5,29.80,South,180,0.0,1.0,73,0.00,SCT,OVC,0.00,WeatherDisplay:10.37,2013-01-16 19:04:00,
2013-01-16 14:09:00,30.2,22.6,29.80,South,170,0.0,1.0,73,0.00,SCT,OVC,0.00,WeatherDisplay:10.37,2013-01-16 19:09:00,
2013-01-16 14:14:00,30.4,22.8,29.80,SE,143,0.0,2.0,73,0.00,SCT,OVC,0.00,WeatherDisplay:10.37,2013-01-16 19:14:00,
2013-01-16 14:19:00,30.3,22.7,29.80,SE,134,0.0,4.0,73,0.00,SCT,OVC,0.00,WeatherDisplay:10.37,2013-01-16 19:19:00,
2013-01-16 14:24:00,30.7,22.7,29.80,South,191,1.0,4.0,72,0.00,SCT,OVC,0.00,WeatherDisplay:10.37,2013-01-16 19:24:00,
2013-01-16 14:29:00,30.9,22.9,29.79,SSW,202,1.0,4.0,72,0.00,SCT,OVC,0.00,WeatherDisplay:10.37,2013-01-16 19:29:00,
2013-01-16 14:34:00,30.9,22.6,29.80,SSW,197,0.0,4.0,71,0.00,SCT,OVC,0.00,WeatherDisplay:10.37,2013-01-16 19:34:00,
2013-01-16 14:39:00,30.8,23.2,29.79,SSW,198,1.0,3.0,73,0.00,SCT,OVC,0.00,WeatherDisplay:10.37,2013-01-16 19:39:00,
2013-01-16 14:44:00,30.6,23.3,29.79,SSE,161,0.0,1.0,74,0.00,SCT,OVC,0.00,WeatherDisplay:10.37,2013-01-16 19:44:00,
2013-01-16 14:49:00,30.5,22.9,29.79,SSE,158,0.0,1.0,73,0.00,SCT,OVC,0.00,WeatherDisplay:10.37,2013-01-16 19:49:00,
2013-01-16 14:54:00,30.5,22.9,29.79,South,178,0.0,5.0,73,0.00,SCT,OVC,0.00,WeatherDisplay:10.37,2013-01-16 19:54:00,
2013-01-16 14:59:00,30.5,23.2,29.78,SSE,157,0.0,2.0,74,0.00,SCT,OVC,0.00,WeatherDisplay:10.37,2013-01-16 19:59:00,
2013-01-16 15:04:00,30.4,23.1,29.78,ESE,118,0.0,4.0,74,0.00,SCT,OVC,0.00,WeatherDisplay:10.37,2013-01-16 20:04:00,
2013-01-16 15:09:00,30.4,23.1,29.78,SSE,147,0.0,3.0,74,0.00,SCT,OVC,0.00,WeatherDisplay:10.37,2013-01-16 20:09:00,
2013-01-16 15:14:00,30.4,23.5,29.77,SSE,165,0.0,1.0,75,0.00,BKN,OVC,0.00,WeatherDisplay:10.37,2013-01-16 20:14:00,
2013-01-16 15:19:00,30.3,22.7,29.77,South,174,0.0,3.0,73,0.00,BKN,OVC,0.00,WeatherDisplay:10.37,2013-01-16 20:19:00,
2013-01-16 15:24:00,30.1,22.9,29.77,South,182,0.0,1.0,74,0.00,BKN,OVC,0.00,WeatherDisplay:10.37,2013-01-16 20:24:00,
2013-01-16 15:29:00,29.9,22.6,29.77,SSE,161,0.0,4.0,74,0.00,BKN,OVC,0.00,WeatherDisplay:10.37,2013-01-16 20:29:00,
2013-01-16 15:34:00,29.7,22.5,29.77,SSE,152,0.0,1.0,74,0.00,BKN,OVC,0.00,WeatherDisplay:10.37,2013-01-16 20:34:00,
2013-01-16 15:39:00,29.7,22.7,29.77,SSW,203,0.0,2.0,75,0.00,BKN,OVC,0.00,WeatherDisplay:10.37,2013-01-16 20:39:00,
2013-01-16 15:44:00,29.7,23.0,29.77,South,174,0.0,1.0,76,0.00,BKN,OVC,0.00,WeatherDisplay:10.37,2013-01-16 20:44:00,
2013-01-16 15:49:00,29.6,23.0,29.77,SSE,156,0.0,0.0,76,0.00,BKN,OVC,0.00,WeatherDisplay:10.37,2013-01-16 20:49:00,
2013-01-16 15:54:00,29.7,22.7,29.77,SSE,156,0.0,1.0,75,0.00,BKN,OVC,0.00,WeatherDisplay:10.37,2013-01-16 20:54:00,
2013-01-16 15:59:00,29.7,22.7,29.77,SSE,152,0.0,1.0,75,0.00,BKN,OVC,0.00,WeatherDisplay:10.37,2013-01-16 20:59:00,
2013-01-16 16:04:00,29.6,23.0,29.77,SE,138,0.0,0.0,76,0.00,BKN,OVC,0.00,WeatherDisplay:10.37,2013-01-16 21:04:00,
2013-01-16 16:09:00,29.6,22.6,29.77,SE,138,0.0,1.0,75,0.00,BKN,OVC,0.00,WeatherDisplay:10.37,2013-01-16 21:09:00,
2013-01-16 16:14:00,29.6,23.3,29.77,SE,138,0.0,0.0,77,0.00,BKN,OVC,0.00,WeatherDisplay:10.37,2013-01-16 21:14:00,
2013-01-16 16:19:00,29.5,22.9,29.76,SE,138,0.0,0.0,76,0.00,BKN,OVC,0.00,WeatherDisplay:10.37,2013-01-16 21:19:00,
2013-01-16 16:24:00,29.5,23.2,29.76,SE,138,0.0,0.0,77,0.00,BKN,OVC,0.00,WeatherDisplay:10.37,2013-01-16 21:24:00,
2013-01-16 16:29:00,29.4,23.4,29.75,SE,138,0.0,0.0,78,0.00,BKN,OVC,0.00,WeatherDisplay:10.37,2013-01-16 21:29:00,
2013-01-16 16:34:00,29.3,23.3,29.75,SE,138,0.0,0.0,78,0.00,BKN,OVC,0.00,WeatherDisplay:10.37,2013-01-16 21:34:00,
2013-01-16 16:39:00,29.3,23.3,29.75,SE,138,0.0,0.0,78,0.00,BKN,OVC,0.00,WeatherDisplay:10.37,2013-01-16 21:39:00,
2013-01-16 16:44:00,29.3,23.3,29.75,SE,138,0.0,0.0,78,0.00,BKN,OVC,0.00,WeatherDisplay:10.37,2013-01-16 21:44:00,
2013-01-16 16:49:00,29.3,23.3,29.75,SE,138,0.0,0.0,78,0.00,BKN,OVC,0.00,WeatherDisplay:10.37,2013-01-16 21:49:00,
2013-01-16 16:54:00,29.3,23.6,29.75,SE,138,0.0,1.0,79,0.00,BKN,OVC,0.00,WeatherDisplay:10.37,2013-01-16 21:54:00,
2013-01-16 16:59:00,29.2,23.5,29.75,SE,138,0.0,0.0,79,0.00,BKN,OVC,0.00,WeatherDisplay:10.37,2013-01-16 21:59:00,
2013-01-16 17:04:00,29.2,23.8,29.75,SE,138,0.0,0.0,80,0.00,BKN,OVC,0.00,WeatherDisplay:10.37,2013-01-16 22:04:00,
2013-01-16 17:09:00,29.4,23.7,29.75,SE,138,0.0,0.0,79,0.00,BKN,OVC,0.00,WeatherDisplay:10.37,2013-01-16 22:09:00,
2013-01-16 17:19:00,29.4,24.0,29.74,SE,138,0.0,0.0,80,0.00,OVC,OVC,0.00,WeatherDisplay:10.37,2013-01-16 22:19:00,
2013-01-16 17:29:00,29.4,24.0,29.74,SSW,200,0.0,0.0,80,0.00,OVC,OVC,0.00,WeatherDisplay:10.37,2013-01-16 22:29:00,
2013-01-16 17:34:00,29.3,24.2,29.74,SSW,199,0.0,0.0,81,0.00,OVC,OVC,0.00,WeatherDisplay:10.37,2013-01-16 22:34:00,
2013-01-16 17:39:00,29.1,24.0,29.73,SSW,199,0.0,0.0,81,0.00,OVC,OVC,0.00,WeatherDisplay:10.37,2013-01-16 22:39:00,
2013-01-16 17:44:00,29.1,24.0,29.73,SSW,199,0.0,0.0,81,0.00,OVC,OVC,0.00,WeatherDisplay:10.37,2013-01-16 22:44:00,
2013-01-16 17:49:00,29.1,23.7,29.74,SSW,199,0.0,0.0,80,0.00,OVC,OVC,0.00,WeatherDisplay:10.37,2013-01-16 22:49:00,
2013-01-16 17:54:00,29.1,24.0,29.73,SSW,199,0.0,0.0,81,0.00,OVC,OVC,0.00,WeatherDisplay:10.37,2013-01-16 22:54:00,
2013-01-16 17:59:00,29.0,23.9,29.73,SSW,199,0.0,0.0,81,0.00,OVC,OVC,0.00,WeatherDisplay:10.37,2013-01-16 22:59:00,
2013-01-16 18:04:00,29.1,24.0,29.72,South,191,0.0,2.0,81,0.00,OVC,OVC,0.00,WeatherDisplay:10.37,2013-01-16 23:04:00,
2013-01-16 18:09:00,29.1,24.0,29.72,SSE,165,0.0,1.0,81,0.00,OVC,OVC,0.00,WeatherDisplay:10.37,2013-01-16 23:09:00,
2013-01-16 18:14:00,29.1,24.3,29.72,South,169,0.0,2.0,82,0.00,OVC,OVC,0.00,WeatherDisplay:10.37,2013-01-16 23:14:00,
2013-01-16 18:19:00,29.1,24.6,29.71,SSE,168,0.0,1.0,83,0.00,OVC,OVC,0.00,WeatherDisplay:10.37,2013-01-16 23:19:00,
2013-01-16 18:24:00,29.0,24.5,29.71,SSE,157,0.0,2.0,83,0.00,OVC,OVC,0.00,WeatherDisplay:10.37,2013-01-16 23:24:00,
2013-01-16 18:29:00,29.0,24.8,29.71,South,183,0.0,1.0,84,0.00,OVC,OVC,0.00,WeatherDisplay:10.37,2013-01-16 23:29:00,
2013-01-16 18:34:00,28.9,24.7,29.71,South,184,0.0,0.0,84,0.00,OVC,OVC,0.00,WeatherDisplay:10.37,2013-01-16 23:34:00,
2013-01-16 18:39:00,28.9,24.7,29.71,South,171,1.0,3.0,84,0.00,OVC,OVC,0.00,WeatherDisplay:10.37,2013-01-16 23:39:00,
2013-01-16 18:44:00,28.9,25.0,29.71,SSE,155,0.0,2.0,85,0.00,OVC,OVC,0.00,WeatherDisplay:10.37,2013-01-16 23:44:00,
2013-01-16 18:49:00,28.8,25.2,29.71,SSE,163,1.0,3.0,86,0.00,OVC,OVC,0.00,WeatherDisplay:10.37,2013-01-16 23:49:00,
2013-01-16 18:54:00,28.8,25.4,29.71,South,172,1.0,2.0,87,0.00,OVC,OVC,0.00,WeatherDisplay:10.37,2013-01-16 23:54:00,
2013-01-16 18:59:00,28.8,25.7,29.71,South,184,0.0,3.0,88,0.00,OVC,OVC,0.00,WeatherDisplay:10.37,2013-01-16 23:59:00,
2013-01-16 19:04:00,28.7,25.6,29.71,South,186,0.0,1.0,88,0.00,OVC,OVC,0.00,WeatherDisplay:10.37,2013-01-17 00:04:00,
2013-01-16 19:09:00,28.7,25.6,29.71,South,188,0.0,2.0,88,0.00,OVC,OVC,0.00,WeatherDisplay:10.37,2013-01-17 00:09:00,
2013-01-16 19:14:00,28.6,25.5,29.71,South,191,1.0,3.0,88,0.00,OVC,OVC,0.00,WeatherDisplay:10.37,2013-01-17 00:14:00,
2013-01-16 19:19:00,28.6,25.5,29.71,SSW,192,0.0,1.0,88,0.00,OVC,OVC,0.00,WeatherDisplay:10.37,2013-01-17 00:19:00,
2013-01-16 19:24:00,28.6,25.8,29.71,SSW,193,0.0,0.0,89,0.00,OVC,OVC,0.00,WeatherDisplay:10.37,2013-01-17 00:24:00,
2013-01-16 19:29:00,28.6,25.8,29.71,SSW,195,0.0,1.0,89,0.00,OVC,OVC,0.00,WeatherDisplay:10.37,2013-01-17 00:29:00,
2013-01-16 19:34:00,28.5,25.7,29.71,SSW,196,0.0,1.0,89,0.00,OVC,OVC,0.00,WeatherDisplay:10.37,2013-01-17 00:34:00,
2013-01-16 19:39:00,28.5,25.7,29.71,South,186,0.0,1.0,89,0.00,OVC,OVC,0.00,WeatherDisplay:10.37,2013-01-17 00:39:00,
2013-01-16 19:44:00,28.5,25.7,29.71,South,188,0.0,2.0,89,0.00,OVC,OVC,0.00,WeatherDisplay:10.37,2013-01-17 00:44:00,
2013-01-16 19:49:00,28.5,25.7,29.71,SSW,192,0.0,1.0,89,0.00,OVC,OVC,0.00,WeatherDisplay:10.37,2013-01-17 00:49:00,
2013-01-16 19:54:00,28.5,25.7,29.71,SSW,200,0.0,2.0,89,0.00,OVC,OVC,0.00,WeatherDisplay:10.37,2013-01-17 00:54:00,
2013-01-16 19:59:00,28.5,25.7,29.71,SW,224,0.0,2.0,89,0.00,OVC,OVC,0.00,WeatherDisplay:10.37,2013-01-17 00:59:00,
2013-01-16 20:04:00,28.5,25.7,29.71,SW,218,0.0,2.0,89,0.00,OVC,OVC,0.00,WeatherDisplay:10.37,2013-01-17 01:04:00,
2013-01-16 20:09:00,28.5,25.7,29.71,SSW,205,0.0,2.0,89,0.00,OVC,OVC,0.00,WeatherDisplay:10.37,2013-01-17 01:09:00,
2013-01-16 20:14:00,28.5,25.7,29.71,South,176,0.0,3.0,89,0.00,OVC,OVC,0.00,WeatherDisplay:10.37,2013-01-17 01:14:00,
2013-01-16 20:19:00,28.6,25.8,29.70,South,174,0.0,2.0,89,0.00,OVC,OVC,0.00,WeatherDisplay:10.37,2013-01-17 01:19:00,
2013-01-16 20:24:00,28.6,25.8,29.70,South,181,0.0,2.0,89,0.00,OVC,OVC,0.00,WeatherDisplay:10.37,2013-01-17 01:24:00,
2013-01-16 20:29:00,28.6,25.8,29.70,South,188,0.0,3.0,89,0.00,OVC,OVC,0.00,WeatherDisplay:10.37,2013-01-17 01:29:00,
2013-01-16 20:39:00,28.7,25.8,29.71,SSW,210,0.0,2.0,89,0.00,OVC,OVC,0.00,WeatherDisplay:10.37,2013-01-17 01:39:00,
2013-01-16 20:44:00,28.7,25.9,29.70,SSW,192,0.0,4.0,89,0.00,OVC,OVC,0.00,WeatherDisplay:10.37,2013-01-17 01:44:00,
2013-01-16 20:49:00,28.7,25.9,29.69,South,186,0.0,2.0,89,0.00,OVC,OVC,0.00,WeatherDisplay:10.37,2013-01-17 01:49:00,
2013-01-16 20:54:00,28.7,25.9,29.70,SSW,194,1.0,5.0,89,0.00,OVC,OVC,0.00,WeatherDisplay:10.37,2013-01-17 01:54:00,
2013-01-16 20:59:00,28.8,26.0,29.70,SSW,204,0.0,4.0,89,0.00,OVC,OVC,0.00,WeatherDisplay:10.37,2013-01-17 01:59:00,
2013-01-16 21:04:00,28.8,26.0,29.70,SSW,211,0.0,3.0,89,0.00,OVC,OVC,0.00,WeatherDisplay:10.37,2013-01-17 02:04:00,
2013-01-16 21:09:00,28.8,26.0,29.70,SW,228,1.0,4.0,89,0.00,OVC,OVC,0.00,WeatherDisplay:10.37,2013-01-17 02:09:00,
2013-01-16 21:14:00,28.9,26.1,29.69,SW,215,0.0,3.0,89,0.00,BKN,OVC,0.00,WeatherDisplay:10.37,2013-01-17 02:14:00,
2013-01-16 21:19:00,28.9,26.1,29.69,SSW,206,0.0,2.0,89,0.00,BKN,OVC,0.00,WeatherDisplay:10.37,2013-01-17 02:19:00,
2013-01-16 21:24:00,28.9,26.1,29.69,SSW,209,0.0,3.0,89,0.00,BKN,OVC,0.00,WeatherDisplay:10.37,2013-01-17 02:24:00,
2013-01-16 21:29:00,29.0,26.1,29.69,SW,224,0.0,5.0,89,0.00,BKN,OVC,0.00,WeatherDisplay:10.37,2013-01-17 02:29:00,
2013-01-16 21:34:00,29.0,26.2,29.69,SSW,211,0.0,2.0,89,0.00,BKN,OVC,0.00,WeatherDisplay:10.37,2013-01-17 02:34:00,
2013-01-16 21:39:00,29.1,26.2,29.69,SSE,163,0.0,1.0,89,0.00,BKN,OVC,0.00,WeatherDisplay:10.37,2013-01-17 02:39:00,
2013-01-16 21:44:00,29.1,26.3,29.69,SSE,162,0.0,1.0,89,0.00,BKN,OVC,0.00,WeatherDisplay:10.37,2013-01-17 02:44:00,
2013-01-16 21:49:00,29.1,26.3,29.68,South,186,0.0,2.0,89,0.00,BKN,OVC,0.00,WeatherDisplay:10.37,2013-01-17 02:49:00,
2013-01-16 21:54:00,29.2,26.3,29.68,South,181,0.0,1.0,89,0.00,BKN,OVC,0.00,WeatherDisplay:10.37,2013-01-17 02:54:00,
2013-01-16 21:59:00,29.2,26.4,29.68,SSE,154,0.0,0.0,89,0.00,BKN,OVC,0.00,WeatherDisplay:10.37,2013-01-17 02:59:00,
2013-01-16 22:04:00,29.2,26.4,29.68,SSE,154,0.0,0.0,89,0.00,BKN,OVC,0.00,WeatherDisplay:10.37,2013-01-17 03:04:00,
2013-01-16 22:09:00,29.2,26.4,29.67,SSE,154,0.0,1.0,89,0.00,BKN,OVC,0.00,WeatherDisplay:10.37,2013-01-17 03:09:00,
2013-01-16 22:14:00,29.2,26.4,29.68,SSE,166,0.0,2.0,89,0.00,BKN,OVC,0.00,WeatherDisplay:10.37,2013-01-17 03:14:00,
2013-01-16 22:19:00,29.3,26.5,29.67,SW,217,0.0,2.0,89,0.00,BKN,OVC,0.00,WeatherDisplay:10.37,2013-01-17 03:19:00,
2013-01-16 22:24:00,29.3,26.5,29.68,SW,225,1.0,3.0,89,0.00,BKN,OVC,0.00,WeatherDisplay:10.37,2013-01-17 03:24:00,
2013-01-16 22:29:00,29.4,26.5,29.68,SW,230,0.0,3.0,89,0.00,BKN,OVC,0.00,WeatherDisplay:10.37,2013-01-17 03:29:00,
2013-01-16 22:34:00,29.4,26.6,29.68,WSW,239,1.0,4.0,89,0.00,BKN,OVC,0.00,WeatherDisplay:10.37,2013-01-17 03:34:00,
2013-01-16 22:39:00,29.5,26.7,29.67,WSW,257,0.0,1.0,89,0.00,BKN,OVC,0.00,WeatherDisplay:10.37,2013-01-17 03:39:00,
2013-01-16 22:44:00,29.5,26.4,29.67,WSW,243,0.0,4.0,88,0.00,BKN,OVC,0.00,WeatherDisplay:10.37,2013-01-17 03:44:00,
2013-01-16 22:49:00,29.6,26.5,29.67,SW,223,1.0,6.0,88,0.00,BKN,OVC,0.00,WeatherDisplay:10.37,2013-01-17 03:49:00,
2013-01-16 22:54:00,29.7,26.6,29.67,SW,224,1.0,6.0,88,0.00,BKN,OVC,0.00,WeatherDisplay:10.37,2013-01-17 03:54:00,
2013-01-16 22:59:00,29.8,26.7,29.67,WSW,245,1.0,4.0,88,0.00,BKN,OVC,0.00,WeatherDisplay:10.37,2013-01-17 03:59:00,
2013-01-16 23:04:00,29.9,26.8,29.68,WSW,244,2.0,6.0,88,0.00,BKN,OVC,0.00,WeatherDisplay:10.37,2013-01-17 04:04:00,
2013-01-16 23:09:00,30.1,27.0,29.67,SW,223,2.0,8.0,88,0.00,BKN,OVC,0.00,WeatherDisplay:10.37,2013-01-17 04:09:00,
2013-01-16 23:14:00,30.3,27.2,29.67,SW,228,1.0,9.0,88,0.00,BKN,OVC,0.00,WeatherDisplay:10.37,2013-01-17 04:14:00,
2013-01-16 23:19:00,30.4,27.0,29.67,WSW,237,1.0,5.0,87,0.00,BKN,OVC,0.00,WeatherDisplay:10.37,2013-01-17 04:19:00,
2013-01-16 23:24:00,30.5,27.1,29.67,WSW,247,1.0,3.0,87,0.00,BKN,OVC,0.00,WeatherDisplay:10.37,2013-01-17 04:24:00,
2013-01-16 23:29:00,30.6,27.2,29.67,SW,231,2.0,5.0,87,0.00,BKN,OVC,0.00,WeatherDisplay:10.37,2013-01-17 04:29:00,
2013-01-16 23:34:00,30.7,27.3,29.67,SW,220,1.0,6.0,87,0.00,BKN,OVC,0.00,WeatherDisplay:10.37,2013-01-17 04:34:00,
2013-01-16 23:39:00,30.9,27.5,29.67,WNW,286,5.0,8.0,87,0.00,BKN,OVC,0.00,WeatherDisplay:10.37,2013-01-17 04:39:00,
2013-01-16 23:44:00,31.1,27.7,29.67,WSW,245,0.0,4.0,87,0.00,BKN,OVC,0.00,WeatherDisplay:10.37,2013-01-17 04:44:00,
2013-01-16 23:49:00,31.1,27.7,29.67,SW,224,2.0,8.0,87,0.00,BKN,OVC,0.00,WeatherDisplay:10.37,2013-01-17 04:49:00,
2013-01-16 23:54:00,31.3,27.6,29.67,WSW,242,5.0,16.0,86,0.00,BKN,OVC,0.00,WeatherDisplay:10.37,2013-01-17 04:54:00,